Regional Weather Roundup
Issued by NWS

Home | Current Version | Previous Version | Graphics & Text | Print | Product List | Glossary On
Versions: 1 2 3 4 5 6 7 8 9 10 11 12 13 14 15 16 17 18 19 20 21 22 23 24 25 26 27 28 29 30 31 32 33 34 35 36 37 38 39 40 41 42 43 44 45 46 47 48 49 50
000
ASUS45 KCYS 171110
RWRWY

WYOMING REGIONAL WEATHER ROUNDUP
NATIONAL WEATHER SERVICE CHEYENNE WY
500 AM MDT WED SEP 17 2014

NOTE:  "FAIR" INDICATES FEW OR NO CLOUDS BELOW 12,000 FEET
WITH NO SIGNIFICANT WEATHER AND/OR OBSTRUCTIONS TO VISIBILITY.

WYZ001-171200-
YELLOWSTONE NATIONAL PARK

CITY           SKY/WX    TMP DP  RH WIND       PRES   REMARKS
LK YELLOWSTONE   N/A     35  33  92 CALM      30.24F
W YELLOWSTONE  NOT AVBL

$$
WYZ002>013-054>058-071-098>099-171200-
NORTHERN WYOMING

CITY           SKY/WX    TMP DP  RH WIND       PRES   REMARKS
JACKSON        PTCLDY    43  39  87 N6        30.16S
CODY           PTCLDY    54  41  62 S6        30.05F
GREYBULL       PTCLDY    56  44  64 NW6       29.98R
WORLAND        PTCLDY    51  45  79 CALM      29.99F
SHERIDAN       CLOUDY    62  46  55 N13       29.95F
BUFFALO        CLOUDY    63  42  46 W9        30.03F
GILLETTE       MOCLDY    66  37  34 SW10      29.98F
HULETT         FAIR      52  36  54 MISG      30.00
NEWCASTLE      FAIR      50  36  57 CALM      30.02

$$
WYZ014>020-022>026-101>103-171200-
CENTRAL WYOMING

CITY           SKY/WX    TMP DP  RH WIND       PRES   REMARKS
BIG PINEY      CLEAR     42  34  73 CALM      30.20F
PINEDALE       MOSUNNY   36  34  93 W7        30.20F WCI  30
DUBOIS         FAIR      45  39  81 NW10      30.18F
LANDER         CLEAR     52  41  66 SE7       30.07F
RIVERTON       PTCLDY    56  40  55 S5        30.07F
CASPER         PTCLDY    57  36  45 W12       30.07S
DOUGLAS        MOCLDY    51  40  65 VRB3      30.05

$$
WYZ021-027>030-104>119-171200-
SOUTHERN WYOMING

CITY           SKY/WX    TMP DP  RH WIND       PRES   REMARKS
EVANSTON       MOCLDY    57  36  45 S5        30.18F
KEMMERER       MOSUNNY   45  37  76 N10       30.20S
FORT BRIDGER   FAIR      54  37  51 W7        30.20S
ROCK SPRINGS   CLEAR     54  36  50 S6        30.17S
DIXON          FAIR      49  39  67 CALM      30.21S
RAWLINS        CLEAR     51  34  52 W3        30.18F
SARATOGA       FAIR      46  37  71 CALM      30.21S
LARAMIE        PTCLDY    46  33  60 S6        30.20F
CHEYENNE       CLEAR     54  36  50 W5        30.12S
TORRINGTON     PTCLDY    55  45  68 W7        29.99R
PINE BLUFFS    FAIR      43  37  81 S6        30.07S

$$



USA.gov is the U.S. government's official web portal to all federal, state and local government web resources and services.